Regional Weather Roundup
Issued by NWS Sioux Falls, SD

Home | Current Version | Previous Version | Graphics & Text | Print | Product List | Glossary Off
Versions: 1 2 3 4 5 6 7 8 9 10 11 12 13 14 15 16 17 18 19 20 21 22 23 24 25 26 27 28 29 30 31 32 33 34 35 36 37 38 39 40 41 42 43 44 45 46 47 48 49 50

000
ASUS43 KFSD 251410
RWRFSD

WEATHER ROUNDUP FOR SE SOUTH DAKOTA/SW MINNESOTA/NW IOWA
NATIONAL WEATHER SERVICE SIOUX FALLS SD
900 AM CDT SUN SEP 25 2016

NOTE: "FAIR" INDICATES FEW OR NO CLOUDS BELOW 12,000 FEET WITH NO
SIGNIFICANT WEATHER AND OR OBSTRUCTIONS TO VISIBILITY.


SDZ038>040-050-052>070-251500-
SOUTHEAST SOUTH DAKOTA

CITY           SKY/WX    TMP DP  RH WIND       PRES   REMARKS
BROOKINGS      CLOUDY    56  50  80 W20G28    29.94S
CHAMBERLAIN    CLOUDY    58  46  63 W29G36    30.09R
HURON          CLOUDY    57  47  69 NW24G33   29.97S
MADISON        CLOUDY    55  54  94 W17G24    29.97S
MITCHELL       CLOUDY    59  47  64 W23G33    30.02R
SIOUX FALLS    CLOUDY    57  49  74 W10G17    29.99S
WINNER         FAIR      59  45  59 W21G33    30.13R
YANKTON        PTSUNNY   57  46  67 W15       30.05R
$$

MNZ071-072-080-081-089-090-097-098-251500-
SOUTHWEST MINNESOTA

CITY           SKY/WX    TMP DP  RH WIND       PRES   REMARKS
FAIRMONT       CLOUDY    57  51  80 W9        29.98S
JACKSON        MOSUNNY   55  46  71 SW9       29.99S
LUVERNE        SUNNY     54  46  76 W12G17    30.00S
MARSHALL       SUNNY     58  49  72 W22       29.90F
MONTEVIDEO     CLOUDY    57  54  88 W9G17     29.90S
PIPESTONE      PTSUNNY   55  48  76 W13G18    29.96S
REDWOOD FALLS  SUNNY     57  49  74 SW14G23   29.91F
TRACY          SUNNY     58  51  78 W20G29    29.94S
WINDOM         SUNNY     57  48  72 SW13      29.96F
WORTHINGTON    SUNNY     55  48  77 W15       29.99S
$$

IAZ001>003-012>014-020>022-031-032-NEZ013-014-SDZ071-251500-
NORTHWEST IOWA

CITY           SKY/WX    TMP DP  RH WIND       PRES   REMARKS
CHEROKEE       CLOUDY    56  51  82 W8        30.04S
DENISON        CLOUDY    57  50  77 W8        30.06S
ESTHERVILLE    MOSUNNY   55  51  86 W9        29.99F
LE MARS        SUNNY     57  48  72 W10       30.05S
ORANGE CITY    SUNNY     55  50  82 W14       30.03S
SHELDON        SUNNY     55  50  82 W12       30.00S
SIOUX CITY     SUNNY     57  49  74 W10       30.07R
SPENCER        CLOUDY    57  50  77 W12       30.01F
STORM LAKE     MOSUNNY   55  50  82 W10       30.04S
$$

ABBREVIATIONS USED IN REMARKS
   TC - TEMPERATURE IN CELSIUS
  WCI - WIND CHILL INDEX
   HX - HEAT INDEX
  VSB - VISIBILITY





USA.gov is the U.S. government's official web portal to all federal, state and local government web resources and services.